#timestamp,LO_Frequency,Hit,StdDev 
1603918815.7,286047000.6,N
1603918835.5,286046998.5,N
1603918855.4,286047001.0,N
1603918875.2,286047000.3,N
1603918895.0,286047000.2,N
1603918895.9,286047000.2,N
1603918915.8,286047000.7,N
1603918935.6,286047000.6,N
1603918955.5,286047000.7,N
1603918975.3,286046998.5,N
1603918995.1,286046998.5,N
1603919015.9,286047001.0,N
1603919035.7,286046998.9,N
1603919055.6,286046998.6,N
1603919075.4,286046998.1,N
1603919095.2,286046998.3,N
1603919115.1,286046998.5,N
1603919116.0,286046998.5,N
1603919135.8,286046999.1,N
1603919155.6,286047000.7,N
1603919175.5,286046998.2,N
1603919195.3,286046998.6,N
1603919215.2,286046998.3,N
1603919235.9,286046998.7,N
1603919255.7,286046998.8,N
1603919275.6,286046998.4,N
1603919295.4,286046998.4,N
1603919315.3,286046999.0,N
1603919335.1,286046998.3,N
1603919336.0,286046998.3,N
1603919355.8,286046998.9,N
1603919375.7,286046998.8,N
1603919395.5,286046999.0,N
1603919415.3,286046999.0,N
1603919435.2,286046999.3,N
1603919455.0,286046999.3,N
1603919455.9,286046999.3,N
1603919475.8,286046999.4,N
1603919495.6,286046999.4,N
1603919515.4,286046998.9,N
1603919535.3,286046999.3,N
1603919555.1,286046998.7,N
1603919575.9,286046998.3,Y
1603919595.7,286047000.6,P
1603919615.5,286047001.2,N
1603919635.4,286046998.1,N
1603919655.2,286046998.8,N
1603919675.1,286046999.9,N
1603919676.0,286046999.9,N
1603919695.8,286047001.0,N
1603919715.6,286047001.0,N
1603919735.5,286047000.3,N
1603919755.3,286047000.6,N
1603919775.1,286047000.5,N
1603919795.9,286047000.8,N
1603919815.7,286047001.0,N
1603919835.6,286047000.5,N
1603919855.4,286047000.4,N
1603919875.2,286047000.0,N
1603919895.1,286047000.3,N
1603919896.0,286047000.3,N
1603919915.8,286047000.6,N
1603919935.6,286047000.6,N
1603919955.5,286047000.3,N
1603919975.3,286047001.0,N
1603919995.2,286047000.3,N
1603920015.9,286047000.2,N
1603920035.7,286046999.9,N
1603920055.6,286046999.8,N
1603920075.4,286046999.9,N
1603920095.2,286047000.6,N
1603920115.1,286047000.6,N
1603920116.0,286047000.6,N
1603920135.8,286046999.9,N
1603920155.7,286047000.7,N
1603920175.5,286047001.0,N
1603920195.3,286047000.8,N
1603920215.2,286047000.8,N
1603920235.0,286047000.3,N
1603920235.9,286047000.3,N
1603920255.8,286047001.1,Y
1603920275.6,286047001.1,P
1603920295.4,286047001.1,P
1603920315.3,286047000.7,N
1603920335.1,286047000.8,N
1603920355.9,286046998.1,Y
1603920375.7,286046998.8,P
1603920395.5,286046998.6,N
1603920415.4,286046998.4,N
1603920435.2,286046998.8,N
1603920455.0,286046998.2,N
1603920456.0,286046998.2,N
1603920475.8,286047000.9,N
1603920495.6,286046998.1,N
1603920515.5,286046998.4,N
1603920535.3,286046998.3,N
1603920555.1,286046998.7,N
1603920575.9,286046998.7,N
1603920595.7,286046998.7,N
1603920615.6,286046998.4,N
1603920635.4,286046999.0,N
1603920655.2,286046999.4,N
1603920675.1,286046998.3,N
1603920676.0,286046998.3,N
1603920695.8,286046999.2,N
1603920715.7,286046999.5,N
1603920735.5,286046999.2,N
1603920755.3,286046999.4,N
1603920775.2,286046998.9,N
1603920795.0,286046999.1,N
1603920795.9,286046999.1,N
1603920815.7,286046998.5,N
1603920835.6,286046998.4,N
1603920855.4,286046998.8,N
1603920875.3,286046999.3,N
1603920895.1,286046998.8,N
1603920896.0,286046998.8,N
1603920915.8,286046998.8,N
1603920935.7,286046998.3,Y
1603920955.5,286047001.0,P
1603920975.4,286047001.1,N
1603920995.2,286047001.0,N
1603921015.0,286047001.1,N
1603921015.9,286047001.1,N
1603921035.8,286047000.7,N
1603921055.6,286047000.9,N
1603921075.4,286047000.8,N
1603921095.3,286047000.7,N
1603921115.1,286047001.0,N
1603921135.9,286047000.9,N
1603921155.7,286047001.0,N
1603921175.5,286047000.7,N
1603921195.4,286047000.7,N
1603921215.2,286047001.0,N
1603921235.1,286047000.0,N
1603921236.0,286047000.0,N
1603921255.8,286046998.1,Y
1603921275.6,286047000.9,P
1603921295.5,286047000.3,N
1603921315.3,286047000.4,N
1603921335.2,286047001.1,Y
1603921355.9,286046998.8,P
1603921375.7,286046998.7,N
1603921395.6,286046998.1,N
1603921415.4,286046998.2,N
1603921435.3,286046998.4,N
1603921455.1,286046998.2,N
1603921456.0,286046998.2,N
1603921475.8,286046998.1,N
1603921495.7,286046998.5,N
1603921515.5,286046998.6,N
1603921535.3,286046998.8,N
1603921555.2,286046998.3,N
1603921575.0,286046998.9,N
1603921575.9,286046998.9,N
1603921595.8,286046998.9,N
1603921615.6,286046998.8,N
1603921635.4,286046998.3,Y
1603921655.3,286047000.9,P
1603921675.1,286047000.6,N
1603921695.9,286047000.4,N
1603921715.7,286046999.8,N
1603921735.5,286047000.4,N
1603921755.4,286047000.4,N
1603921775.2,286047000.9,N
1603921795.0,286047000.8,N
1603921796.0,286047000.8,N
1603921815.8,286047001.0,N
1603921835.6,286047000.3,N
1603921855.5,286047000.0,N
1603921875.3,286047000.6,N
1603921895.1,286047000.9,N
1603921915.9,286047000.2,N
1603921935.7,286047000.4,N
1603921955.6,286047000.2,N
1603921975.4,286046999.8,N
1603921995.2,286046999.8,N
1603922015.1,286047000.2,N
1603922016.0,286047000.2,N
1603922035.8,286047000.7,N
1603922055.7,286047000.3,N
1603922075.5,286047001.0,N
1603922095.3,286047000.9,N
1603922115.2,286047000.6,N
1603922135.0,286047000.6,N
1603922135.9,286047000.6,N
1603922155.7,286047000.2,N
1603922175.6,286047002.8,Y
1603922195.4,286047000.7,P
1603922215.3,286047001.1,P
1603922235.1,286047000.7,N
1603922255.8,286047001.2,Y
1603922275.7,286046998.2,P
1603922295.5,286046998.2,N
1603922315.4,286046998.2,N
1603922335.2,286046998.1,N
1603922355.0,286047000.7,N
1603922355.9,286047000.7,N
1603922375.8,286047000.8,N
1603922395.6,286047000.8,N
